| time (UTC) | temp C | wind direction | speed KPH | gust KPH | rain 1hr cm | rain 24hr cm | rain mn cm | humidity % | barometer mb |
| 20260905165003 | 17 | 0 | 0.0 | 0.0 | 0.00 | 0.00 | 0.00 | 75 | 1014.4 |
| 20260905164503 | 16 | 0 | 0.0 | 0.0 | 0.00 | 0.00 | 0.00 | 76 | 1014.4 |
| 20260905164024 | 16 | 0 | 0.0 | 0.0 | 0.00 | 0.00 | 0.00 | 76 | 1014.4 |
| 20260905163503 | 16 | 0 | 0.0 | 0.0 | 0.00 | 0.00 | 0.00 | 77 | 1014.4 |
| 20260905163003 | 16 | 0 | 0.0 | 0.0 | 0.00 | 0.00 | 0.00 | 77 | 1014.4 |
| 20260905162503 | 16 | 0 | 0.0 | 0.0 | 0.00 | 0.00 | 0.00 | 78 | 1014.4 |
| 20260905162003 | 16 | 0 | 0.0 | 0.0 | 0.00 | 0.00 | 0.00 | 79 | 1014.4 |
| 20260905161503 | 16 | 0 | 0.0 | 0.0 | 0.00 | 0.00 | 0.00 | 81 | 1014.4 |
| 20260905161003 | 15 | 0 | 0.0 | 0.0 | 0.00 | 0.00 | 0.00 | 83 | 1014.4 |
| 20260905160503 | 15 | 0 | 0.0 | 0.0 | 0.00 | 0.00 | 0.00 | 86 | 1014.4 |
| 20260905160003 | 15 | 0 | 0.0 | 0.0 | 0.00 | 0.00 | 0.00 | 88 | 1014.4 |
| 20260905155503 | 15 | 0 | 0.0 | 0.0 | 0.00 | 0.00 | 0.00 | 89 | 1014.4 |
| 20260905155024 | 14 | 0 | 0.0 | 0.0 | 0.00 | 0.00 | 0.00 | 90 | 1014.4 |
| 20260905154503 | 14 | 0 | 0.0 | 0.0 | 0.00 | 0.00 | 0.00 | 91 | 1014.4 |
| 20260905154003 | 14 | 0 | 0.0 | 0.0 | 0.00 | 0.00 | 0.00 | 92 | 1014.4 |
| 20260905153503 | 13 | 0 | 0.0 | 0.0 | 0.00 | 0.00 | 0.00 | 92 | 1014.4 |
| 20260905153003 | 13 | 0 | 0.0 | 0.0 | 0.00 | 0.00 | 0.00 | 92 | 1014.4 |
| 20260905152503 | 13 | 0 | 0.0 | 0.0 | 0.00 | 0.00 | 0.00 | 92 | 1014.4 |
| 20260905152024 | 13 | 0 | 0.0 | 0.0 | 0.00 | 0.00 | 0.00 | 92 | 1014.4 |
| 20260905151503 | 13 | 0 | 0.0 | 0.0 | 0.00 | 0.00 | 0.00 | 93 | 1014.4 |
| 20260905151003 | 13 | 0 | 0.0 | 0.0 | 0.00 | 0.00 | 0.00 | 93 | 1014.4 |
| 20260905150503 | 13 | 0 | 0.0 | 0.0 | 0.00 | 0.00 | 0.00 | 93 | 1014.4 |
| 20260905150003 | 13 | 182 | 0.0 | 1.6 | 0.00 | 0.00 | 0.00 | 93 | 1014.4 |
| 20260905145524 | 13 | 182 | 0.0 | 1.6 | 0.00 | 0.00 | 0.00 | 93 | 1014.4 |
| 20260905145003 | 13 | 182 | 0.0 | 3.2 | 0.00 | 0.00 | 0.00 | 93 | 1014.4 |
| 20260905144503 | 13 | 182 | 0.0 | 3.2 | 0.00 | 0.00 | 0.00 | 93 | 1014.4 |
| 20260905144003 | 13 | 182 | 0.0 | 1.6 | 0.00 | 0.00 | 0.00 | 93 | 1014.3 |
| 20260905143503 | 12 | 182 | 0.0 | 3.2 | 0.00 | 0.00 | 0.00 | 93 | 1014.3 |
| 20260905143003 | 12 | 182 | 0.0 | 3.2 | 0.00 | 0.00 | 0.00 | 93 | 1014.3 |
| 20260905142503 | 12 | 182 | 0.0 | 1.6 | 0.00 | 0.00 | 0.00 | 93 | 1014.3 |
| 20260905142003 | 12 | 182 | 0.0 | 1.6 | 0.00 | 0.00 | 0.00 | 93 | 1014.3 |
| 20260905141503 | 12 | 182 | 0.0 | 1.6 | 0.00 | 0.00 | 0.00 | 93 | 1014.3 |
| 20260905141003 | 12 | 182 | 0.0 | 3.2 | 0.00 | 0.00 | 0.00 | 93 | 1014.3 |
| 20260905140503 | 12 | 182 | 1.6 | 4.8 | 0.00 | 0.00 | 0.00 | 93 | 1014.3 |
| 20260905140003 | 12 | 183 | 1.6 | 6.4 | 0.00 | 0.00 | 0.00 | 93 | 1014.3 |
| 20260905135503 | 12 | 184 | 1.6 | 6.4 | 0.00 | 0.00 | 0.00 | 93 | 1014.3 |
| 20260905135003 | 12 | 184 | 1.6 | 4.8 | 0.00 | 0.00 | 0.00 | 93 | 1014.3 |
| 20260905134503 | 12 | 184 | 1.6 | 4.8 | 0.00 | 0.00 | 0.00 | 93 | 1014.3 |
| 20260905134003 | 12 | 184 | 1.6 | 4.8 | 0.00 | 0.00 | 0.00 | 93 | 1014.3 |
| 20260905133503 | 12 | 185 | 1.6 | 6.4 | 0.00 | 0.00 | 0.00 | 93 | 1014.3 |
| 20260905133003 | 12 | 186 | 1.6 | 6.4 | 0.00 | 0.00 | 0.00 | 93 | 1014.3 |
| 20260905132503 | 13 | 185 | 1.6 | 6.4 | 0.00 | 0.00 | 0.00 | 93 | 1014.3 |
| 20260905132003 | 13 | 183 | 1.6 | 6.4 | 0.00 | 0.00 | 0.00 | 93 | 1014.3 |
| 20260905131503 | 13 | 184 | 1.6 | 4.8 | 0.00 | 0.00 | 0.00 | 93 | 1014.3 |
| 20260905131003 | 13 | 183 | 1.6 | 4.8 | 0.00 | 0.00 | 0.00 | 93 | 1014.3 |
| 20260905130524 | 13 | 182 | 0.0 | 3.2 | 0.00 | 0.00 | 0.00 | 93 | 1014.3 |
| 20260905130024 | 13 | 182 | 0.0 | 6.4 | 0.00 | 0.00 | 0.00 | 93 | 1014.3 |
| 20260905125503 | 13 | 181 | 3.2 | 8.0 | 0.00 | 0.00 | 0.00 | 93 | 1014.3 |
| 20260905125003 | 13 | 181 | 3.2 | 8.0 | 0.00 | 0.00 | 0.00 | 93 | 1014.3 |
| 20260905124503 | 13 | 179 | 1.6 | 6.4 | 0.00 | 0.00 | 0.00 | 93 | 1014.3 |
| 20260905124024 | 13 | 177 | 1.6 | 6.4 | 0.00 | 0.00 | 0.00 | 93 | 1014.3 |
| 20260905123503 | 13 | 177 | 1.6 | 6.4 | 0.00 | 0.00 | 0.00 | 93 | 1014.3 |
| 20260905123004 | 13 | 176 | 1.6 | 6.4 | 0.00 | 0.00 | 0.00 | 93 | 1014.3 |
| 20260905122503 | 13 | 176 | 1.6 | 6.4 | 0.00 | 0.00 | 0.00 | 93 | 1014.3 |
| 20260905122003 | 13 | 176 | 1.6 | 6.4 | 0.00 | 0.00 | 0.00 | 93 | 1014.3 |
| 20260905121503 | 13 | 175 | 0.0 | 4.8 | 0.00 | 0.00 | 0.00 | 93 | 1014.3 |
| 20260905121003 | 13 | 175 | 1.6 | 4.8 | 0.00 | 0.00 | 0.00 | 93 | 1014.3 |
| 20260905120503 | 13 | 175 | 1.6 | 4.8 | 0.00 | 0.00 | 0.00 | 93 | 1014.3 |
| 20260905120024 | 13 | 176 | 1.6 | 4.8 | 0.00 | 0.00 | 0.00 | 93 | 1014.3 |
| 20260905115503 | 13 | 176 | 1.6 | 4.8 | 0.00 | 0.00 | 0.00 | 93 | 1014.3 |
| 20260905115003 | 13 | 177 | 1.6 | 4.8 | 0.00 | 0.00 | 0.00 | 93 | 1014.3 |
| 20260905114503 | 13 | 177 | 1.6 | 6.4 | 0.00 | 0.00 | 0.00 | 93 | 1014.3 |
| 20260905114024 | 13 | 177 | 1.6 | 6.4 | 0.00 | 0.00 | 0.00 | 93 | 1014.3 |
| 20260905113522 | 13 | 178 | 1.6 | 6.4 | 0.00 | 0.00 | 0.00 | 93 | 1014.3 |
| 20260905113001 | 13 | 180 | 1.6 | 6.4 | 0.00 | 0.00 | 0.00 | 93 | 1014.3 |
| 20260905112501 | 13 | 172 | 1.6 | 8.0 | 0.00 | 0.00 | 0.00 | 93 | 1014.3 |
| 20260905112001 | 13 | 179 | 3.2 | 8.0 | 0.00 | 0.00 | 0.00 | 93 | 1014.3 |
| 20260905111522 | 13 | 179 | 3.2 | 8.0 | 0.00 | 0.00 | 0.00 | 93 | 1014.3 |
| 20260905111002 | 13 | 159 | 1.6 | 8.0 | 0.00 | 0.00 | 0.00 | 93 | 1014.3 |
| 20260905110501 | 13 | 158 | 3.2 | 8.0 | 0.00 | 0.00 | 0.00 | 93 | 1014.3 |
| 20260905110002 | 13 | 157 | 3.2 | 9.7 | 0.00 | 0.00 | 0.00 | 93 | 1014.6 |
| 20260905105501 | 13 | 156 | 1.6 | 9.7 | 0.00 | 0.00 | 0.00 | 93 | 1014.6 |
| 20260905105001 | 13 | 156 | 0.0 | 4.8 | 0.00 | 0.00 | 0.00 | 93 | 1014.6 |
| 20260905104502 | 13 | 155 | 1.6 | 4.8 | 0.00 | 0.00 | 0.00 | 93 | 1014.6 |
| 20260905104001 | 13 | 155 | 1.6 | 4.8 | 0.00 | 0.00 | 0.00 | 93 | 1014.6 |
| 20260905103523 | 13 | 156 | 1.6 | 6.4 | 0.00 | 0.00 | 0.00 | 93 | 1014.6 |
| 20260905103001 | 13 | 158 | 1.6 | 8.0 | 0.00 | 0.00 | 0.00 | 93 | 1014.6 |
| 20260905102501 | 13 | 159 | 1.6 | 8.0 | 0.00 | 0.00 | 0.00 | 93 | 1014.6 |
| 20260905102002 | 13 | 159 | 1.6 | 6.4 | 0.00 | 0.00 | 0.00 | 92 | 1014.6 |
| 20260905101501 | 13 | 159 | 1.6 | 8.0 | 0.00 | 0.00 | 0.00 | 92 | 1014.6 |
| 20260905101001 | 13 | 160 | 1.6 | 8.0 | 0.00 | 0.00 | 0.00 | 92 | 1014.6 |
| 20260905100501 | 13 | 160 | 1.6 | 9.7 | 0.00 | 0.00 | 0.00 | 92 | 1014.6 |
| 20260905100023 | 13 | 160 | 1.6 | 9.7 | 0.00 | 0.00 | 0.00 | 93 | 1014.6 |
| 20260905095502 | 13 | 162 | 1.6 | 6.4 | 0.00 | 0.00 | 0.00 | 92 | 1014.6 |
| 20260905095002 | 13 | 163 | 3.2 | 8.0 | 0.00 | 0.00 | 0.00 | 92 | 1014.6 |
| 20260905094522 | 13 | 163 | 3.2 | 8.0 | 0.00 | 0.00 | 0.00 | 92 | 1014.6 |
| 20260905094001 | 13 | 155 | 1.6 | 9.7 | 0.00 | 0.00 | 0.00 | 92 | 1012.6 |
| 20260905093502 | 13 | 154 | 1.6 | 9.7 | 0.00 | 0.00 | 0.00 | 92 | 1012.6 |
| 20260905093002 | 13 | 172 | 3.2 | 8.0 | 0.00 | 0.00 | 0.00 | 92 | 1012.6 |
| 20260905092501 | 13 | 187 | 3.2 | 8.0 | 0.00 | 0.00 | 0.00 | 92 | 1012.6 |
| 20260905092001 | 13 | 195 | 3.2 | 9.7 | 0.00 | 0.00 | 0.00 | 92 | 1012.6 |
| 20260905091501 | 13 | 187 | 1.6 | 9.7 | 0.00 | 0.00 | 0.00 | 92 | 1012.6 |
| 20260905091001 | 13 | 161 | 1.6 | 9.7 | 0.00 | 0.00 | 0.00 | 92 | 1012.6 |
| 20260905090522 | 13 | 162 | 3.2 | 9.7 | 0.00 | 0.00 | 0.00 | 92 | 1012.6 |
| 20260905090002 | 13 | 159 | 1.6 | 9.7 | 0.00 | 0.00 | 0.00 | 91 | 1012.6 |
| 20260905085502 | 13 | 166 | 3.2 | 9.7 | 0.00 | 0.00 | 0.00 | 91 | 1012.6 |
| 20260905085001 | 13 | 179 | 1.6 | 8.0 | 0.00 | 0.00 | 0.00 | 91 | 1012.6 |
| 20260905084502 | 13 | 186 | 1.6 | 6.4 | 0.00 | 0.00 | 0.00 | 91 | 1012.6 |
| 20260905084001 | 13 | 169 | 1.6 | 8.0 | 0.00 | 0.00 | 0.00 | 91 | 1012.6 |
| 20260905083502 | 13 | 157 | 1.6 | 8.0 | 0.00 | 0.00 | 0.00 | 91 | 1012.6 |
| 20260905083002 | 13 | 155 | 1.6 | 8.0 | 0.00 | 0.00 | 0.00 | 91 | 1012.6 |
| 20260905082501 | 13 | 155 | 1.6 | 4.8 | 0.00 | 0.00 | 0.00 | 91 | 1012.6 |
| 20260905082002 | 13 | 156 | 1.6 | 4.8 | 0.00 | 0.00 | 0.00 | 91 | 1012.6 |
| 20260905081523 | 13 | 160 | 1.6 | 8.0 | 0.00 | 0.00 | 0.00 | 90 | 1012.6 |
| 20260905081002 | 13 | 163 | 3.2 | 8.0 | 0.00 | 0.00 | 0.00 | 90 | 1012.6 |
| 20260905080502 | 13 | 162 | 3.2 | 8.0 | 0.00 | 0.00 | 0.00 | 90 | 1012.6 |
| 20260905080002 | 13 | 157 | 1.6 | 4.8 | 0.00 | 0.00 | 0.00 | 90 | 1012.6 |
| 20260905075502 | 13 | 158 | 0.0 | 4.8 | 0.00 | 0.00 | 0.00 | 90 | 1012.6 |
| 20260905075001 | 13 | 159 | 1.6 | 6.4 | 0.00 | 0.00 | 0.00 | 90 | 1012.6 |
| 20260905074501 | 13 | 159 | 1.6 | 6.4 | 0.00 | 0.00 | 0.00 | 89 | 1012.6 |
| 20260905074022 | 13 | 159 | 1.6 | 6.4 | 0.00 | 0.00 | 0.00 | 89 | 1012.6 |
| 20260905073502 | 13 | 160 | 1.6 | 6.4 | 0.00 | 0.00 | 0.00 | 89 | 1012.6 |
| 20260905073002 | 13 | 161 | 1.6 | 6.4 | 0.00 | 0.03 | 0.00 | 88 | 1012.6 |
| 20260905072502 | 13 | 162 | 1.6 | 6.4 | 0.00 | 0.03 | 0.00 | 88 | 1012.6 |
| 20260905072002 | 13 | 163 | 1.6 | 8.0 | 0.00 | 0.03 | 0.00 | 88 | 1012.6 |
| 20260905071502 | 13 | 164 | 3.2 | 9.7 | 0.00 | 0.03 | 0.00 | 88 | 1012.6 |
| 20260905071001 | 13 | 165 | 1.6 | 9.7 | 0.00 | 0.03 | 0.00 | 87 | 1012.6 |
| 20260905070502 | 13 | 167 | 1.6 | 6.4 | 0.00 | 0.03 | 0.00 | 87 | 1012.6 |
| 20260905070009 | 13 | 167 | 1.6 | 6.4 | 0.00 | 0.03 | 0.00 | 87 | 1012.6 |
| 20260905065523 | 13 | 168 | 1.6 | 6.4 | 0.00 | 0.03 | 0.03 | 87 | 1012.6 |
| 20260905065001 | 13 | 169 | 1.6 | 6.4 | 0.00 | 0.03 | 0.03 | 87 | 1012.6 |
| 20260905064501 | 13 | 169 | 1.6 | 6.4 | 0.00 | 0.03 | 0.03 | 87 | 1012.6 |
| 20260905064002 | 13 | 169 | 1.6 | 6.4 | 0.00 | 0.03 | 0.03 | 86 | 1012.6 |
| 20260905063502 | 13 | 169 | 0.0 | 3.2 | 0.00 | 0.03 | 0.03 | 86 | 1012.6 |
| 20260905063002 | 13 | 169 | 1.6 | 6.4 | 0.00 | 0.03 | 0.03 | 86 | 1012.6 |
| 20260905062502 | 13 | 169 | 1.6 | 6.4 | 0.00 | 0.03 | 0.03 | 86 | 1012.6 |
| 20260905062002 | 13 | 169 | 1.6 | 6.4 | 0.00 | 0.05 | 0.03 | 85 | 1012.6 |
| 20260905061501 | 13 | 170 | 3.2 | 6.4 | 0.00 | 0.08 | 0.03 | 85 | 1012.6 |
| 20260905061002 | 13 | 170 | 3.2 | 8.0 | 0.00 | 0.08 | 0.03 | 85 | 1012.6 |
| 20260905060501 | 13 | 190 | 3.2 | 8.0 | 0.00 | 0.08 | 0.03 | 85 | 1012.6 |
| 20260905060002 | 13 | 227 | 3.2 | 4.8 | 0.00 | 0.10 | 0.03 | 84 | 1012.6 |
| 20260905055502 | 14 | 245 | 1.6 | 4.8 | 0.00 | 0.13 | 0.03 | 84 | 1012.6 |
| 20260905055002 | 14 | 247 | 0.0 | 3.2 | 0.00 | 0.15 | 0.03 | 84 | 1012.6 |
| 20260905054502 | 14 | 247 | 0.0 | 3.2 | 0.00 | 0.15 | 0.03 | 84 | 1012.6 |
| 20260905054002 | 14 | 247 | 1.6 | 3.2 | 0.00 | 0.18 | 0.03 | 84 | 1012.6 |
| 20260905053502 | 14 | 247 | 1.6 | 4.8 | 0.00 | 0.18 | 0.03 | 84 | 1012.6 |
| 20260905053002 | 14 | 246 | 1.6 | 4.8 | 0.00 | 0.20 | 0.03 | 84 | 1012.6 |
| 20260905052502 | 14 | 245 | 1.6 | 6.4 | 0.00 | 0.20 | 0.03 | 84 | 1012.6 |
| 20260905052002 | 14 | 243 | 1.6 | 6.4 | 0.00 | 0.23 | 0.03 | 83 | 1012.6 |
| 20260905051501 | 14 | 242 | 1.6 | 4.8 | 0.00 | 0.23 | 0.03 | 83 | 1012.6 |
| 20260905051002 | 14 | 242 | 0.0 | 4.8 | 0.00 | 0.23 | 0.03 | 83 | 1012.6 |
| 20260905050502 | 14 | 242 | 0.0 | 4.8 | 0.00 | 0.23 | 0.03 | 83 | 1012.6 |
| 20260905050002 | 14 | 242 | 1.6 | 4.8 | 0.00 | 0.23 | 0.03 | 83 | 1012.6 |
| 20260905045502 | 14 | 242 | 1.6 | 4.8 | 0.00 | 0.23 | 0.03 | 82 | 1012.6 |
| 20260905045001 | 14 | 242 | 1.6 | 4.8 | 0.00 | 0.25 | 0.03 | 82 | 1012.6 |
| 20260905044502 | 14 | 245 | 1.6 | 4.8 | 0.00 | 0.25 | 0.03 | 82 | 1012.6 |
| 20260905044002 | 14 | 251 | 3.2 | 6.4 | 0.00 | 0.25 | 0.03 | 82 | 1012.6 |
| 20260905043523 | 14 | 253 | 3.2 | 6.4 | 0.00 | 0.25 | 0.03 | 82 | 1012.6 |
| 20260905043001 | 15 | 252 | 1.6 | 6.4 | 0.00 | 0.25 | 0.03 | 81 | 1012.6 |
| 20260905042502 | 15 | 253 | 1.6 | 6.4 | 0.00 | 0.25 | 0.03 | 81 | 1012.6 |
| 20260905042002 | 15 | 252 | 1.6 | 6.4 | 0.00 | 0.25 | 0.03 | 81 | 1012.6 |
| 20260905041502 | 15 | 251 | 1.6 | 6.4 | 0.00 | 0.25 | 0.03 | 81 | 1012.6 |
| 20260905041023 | 15 | 249 | 1.6 | 6.4 | 0.00 | 0.25 | 0.03 | 80 | 1012.6 |
| 20260905040523 | 15 | 242 | 1.6 | 8.0 | 0.00 | 0.28 | 0.03 | 79 | 1012.6 |
| 20260905040002 | 15 | 250 | 3.2 | 8.0 | 0.00 | 0.28 | 0.03 | 79 | 1012.6 |
| 20260905035502 | 15 | 252 | 3.2 | 8.0 | 0.00 | 0.30 | 0.03 | 78 | 1012.6 |
| 20260905035002 | 15 | 248 | 1.6 | 8.0 | 0.00 | 0.30 | 0.03 | 78 | 1012.6 |
| 20260905034502 | 15 | 247 | 3.2 | 9.7 | 0.00 | 0.33 | 0.03 | 78 | 1012.6 |
| 20260905034002 | 15 | 248 | 3.2 | 9.7 | 0.00 | 0.36 | 0.03 | 78 | 1012.6 |
| 20260905033523 | 15 | 251 | 1.6 | 4.8 | 0.00 | 0.36 | 0.03 | 78 | 1012.6 |
| 20260905033002 | 15 | 253 | 1.6 | 6.4 | 0.00 | 0.36 | 0.03 | 77 | 1012.6 |
| 20260905032523 | 15 | 254 | 1.6 | 6.4 | 0.00 | 0.36 | 0.03 | 76 | 1012.6 |
| 20260905032002 | 15 | 262 | 0.0 | 4.8 | 0.00 | 0.36 | 0.03 | 76 | 1012.6 |
| 20260905031502 | 15 | 265 | 1.6 | 6.4 | 0.00 | 0.36 | 0.03 | 75 | 1012.6 |
| 20260905031002 | 15 | 279 | 0.0 | 6.4 | 0.00 | 0.36 | 0.03 | 75 | 1012.6 |
| 20260905030502 | 16 | 315 | 0.0 | 3.2 | 0.00 | 0.36 | 0.03 | 74 | 1012.6 |
| 20260905030002 | 16 | 314 | 1.6 | 4.8 | 0.00 | 0.36 | 0.03 | 74 | 1012.6 |
| 20260905025523 | 16 | 314 | 1.6 | 4.8 | 0.00 | 0.36 | 0.03 | 74 | 1012.6 |
| 20260905025002 | 16 | 307 | 1.6 | 6.4 | 0.00 | 0.36 | 0.03 | 73 | 1012.6 |
| 20260905024502 | 16 | 303 | 1.6 | 6.4 | 0.00 | 0.36 | 0.03 | 73 | 1012.6 |
| 20260905024002 | 16 | 307 | 1.6 | 6.4 | 0.00 | 0.36 | 0.03 | 72 | 1012.6 |
| 20260905023502 | 16 | 310 | 1.6 | 6.4 | 0.00 | 0.36 | 0.03 | 72 | 1012.6 |
| 20260905023003 | 16 | 307 | 1.6 | 6.4 | 0.00 | 0.36 | 0.03 | 71 | 1012.6 |
| 20260905022502 | 17 | 300 | 1.6 | 4.8 | 0.00 | 0.36 | 0.03 | 71 | 1012.6 |
| 20260905022002 | 17 | 317 | 1.6 | 9.7 | 0.00 | 0.36 | 0.03 | 71 | 1012.6 |
| 20260905021502 | 17 | 326 | 3.2 | 9.7 | 0.00 | 0.36 | 0.03 | 70 | 1012.6 |
| 20260905021002 | 17 | 320 | 3.2 | 9.7 | 0.00 | 0.36 | 0.03 | 70 | 1012.6 |
| 20260905020502 | 17 | 316 | 1.6 | 6.4 | 0.00 | 0.36 | 0.03 | 69 | 1012.6 |
| 20260905020002 | 17 | 313 | 1.6 | 8.0 | 0.00 | 0.36 | 0.03 | 69 | 1012.6 |
| 20260905015502 | 18 | 285 | 3.2 | 8.0 | 0.00 | 0.36 | 0.03 | 68 | 1012.6 |
| 20260905015023 | 18 | 254 | 3.2 | 9.7 | 0.00 | 0.36 | 0.03 | 68 | 1012.6 |
| 20260905014523 | 18 | 289 | 3.2 | 14.5 | 0.00 | 0.36 | 0.03 | 66 | 1012.6 |
| 20260905014002 | 18 | 318 | 3.2 | 14.5 | 0.00 | 0.36 | 0.03 | 65 | 1012.6 |
| 20260905013502 | 18 | 300 | 3.2 | 17.7 | 0.00 | 0.36 | 0.03 | 64 | 1012.6 |
| 20260905013023 | 19 | 287 | 3.2 | 17.7 | 0.00 | 0.36 | 0.03 | 63 | 1012.6 |
| 20260905012502 | 19 | 296 | 3.2 | 11.3 | 0.00 | 0.36 | 0.03 | 64 | 1012.6 |
| 20260905012023 | 20 | 311 | 3.2 | 8.0 | 0.00 | 0.36 | 0.03 | 63 | 1012.6 |
| 20260905011502 | 20 | 314 | 4.8 | 12.9 | 0.00 | 0.36 | 0.03 | 63 | 1012.6 |
| 20260905011002 | 20 | 309 | 3.2 | 12.9 | 0.00 | 0.36 | 0.03 | 62 | 1012.6 |
| 20260905010502 | 20 | 294 | 3.2 | 9.7 | 0.00 | 0.36 | 0.03 | 60 | 1012.6 |
| 20260905010002 | 20 | 273 | 1.6 | 8.0 | 0.00 | 0.36 | 0.03 | 60 | 1012.6 |
| 20260905005502 | 20 | 309 | 3.2 | 17.7 | 0.00 | 0.36 | 0.03 | 60 | 1012.6 |
| 20260905005002 | 20 | 327 | 3.2 | 17.7 | 0.00 | 0.36 | 0.03 | 59 | 1012.6 |
| 20260905004502 | 20 | 321 | 3.2 | 11.3 | 0.00 | 0.36 | 0.03 | 59 | 1012.6 |
| 20260905004002 | 21 | 300 | 3.2 | 11.3 | 0.00 | 0.36 | 0.03 | 59 | 1012.6 |
| 20260905003502 | 21 | 295 | 3.2 | 9.7 | 0.00 | 0.36 | 0.03 | 59 | 1012.6 |
| 20260905003002 | 21 | 289 | 3.2 | 11.3 | 0.00 | 0.36 | 0.03 | 58 | 1012.6 |
| 20260905002502 | 21 | 261 | 3.2 | 11.3 | 0.00 | 0.36 | 0.03 | 58 | 1012.6 |
| 20260905002002 | 21 | 265 | 3.2 | 11.3 | 0.00 | 0.36 | 0.03 | 57 | 1012.6 |
| 20260905001502 | 21 | 306 | 3.2 | 11.3 | 0.00 | 0.36 | 0.03 | 56 | 1012.6 |
| 20260905001002 | 21 | 320 | 3.2 | 9.7 | 0.00 | 0.36 | 0.03 | 58 | 1012.6 |
| 20260905000523 | 21 | 326 | 3.2 | 14.5 | 0.00 | 0.36 | 0.03 | 58 | 1012.6 |
| 20260905000002 | 21 | 340 | 4.8 | 14.5 | 0.00 | 0.36 | 0.03 | 57 | 1012.6 |
| 20260904235502 | 21 | 335 | 3.2 | 12.9 | 0.00 | 0.36 | 0.03 | 56 | 1012.6 |
| 20260904235002 | 21 | 321 | 3.2 | 16.1 | 0.00 | 0.36 | 0.03 | 56 | 1012.6 |
| 20260904234523 | 21 | 335 | 3.2 | 16.1 | 0.00 | 0.36 | 0.03 | 57 | 1012.6 |
| 20260904234002 | 21 | 337 | 3.2 | 12.9 | 0.00 | 0.36 | 0.03 | 57 | 1012.6 |
| 20260904233502 | 21 | 321 | 3.2 | 16.1 | 0.00 | 0.36 | 0.03 | 57 | 1012.6 |
| 20260904233002 | 21 | 328 | 4.8 | 16.1 | 0.00 | 0.36 | 0.03 | 56 | 1012.6 |
| 20260904232502 | 21 | 338 | 4.8 | 16.1 | 0.00 | 0.36 | 0.03 | 55 | 1012.6 |
| 20260904232002 | 21 | 328 | 4.8 | 16.1 | 0.00 | 0.36 | 0.03 | 56 | 1012.6 |
| 20260904231502 | 21 | 312 | 4.8 | 12.9 | 0.00 | 0.36 | 0.03 | 57 | 1012.6 |
| 20260904231002 | 21 | 301 | 4.8 | 12.9 | 0.00 | 0.36 | 0.03 | 56 | 1012.6 |
| 20260904230502 | 21 | 303 | 3.2 | 14.5 | 0.00 | 0.36 | 0.03 | 57 | 1012.6 |
| 20260904230023 | 21 | 319 | 3.2 | 14.5 | 0.00 | 0.36 | 0.03 | 56 | 1012.6 |
| 20260904225502 | 21 | 323 | 3.2 | 12.9 | 0.00 | 0.36 | 0.03 | 56 | 1012.6 |
| 20260904225002 | 21 | 322 | 3.2 | 12.9 | 0.00 | 0.36 | 0.03 | 56 | 1012.6 |
| 20260904224523 | 21 | 332 | 4.8 | 14.5 | 0.00 | 0.36 | 0.03 | 56 | 1012.6 |
| 20260904224002 | 21 | 309 | 4.8 | 20.9 | 0.00 | 0.36 | 0.03 | 55 | 1012.6 |
| 20260904223502 | 21 | 295 | 3.2 | 20.9 | 0.00 | 0.36 | 0.03 | 55 | 1012.6 |
| 20260904223002 | 21 | 330 | 3.2 | 14.5 | 0.00 | 0.36 | 0.03 | 56 | 1012.6 |
| 20260904222502 | 21 | 335 | 3.2 | 14.5 | 0.00 | 0.36 | 0.03 | 55 | 1012.6 |
| 20260904222002 | 21 | 330 | 3.2 | 14.5 | 0.00 | 0.36 | 0.03 | 57 | 1012.6 |
| 20260904221502 | 21 | 320 | 3.2 | 14.5 | 0.00 | 0.36 | 0.03 | 56 | 1012.6 |
| 20260904221002 | 21 | 317 | 3.2 | 9.7 | 0.00 | 0.36 | 0.03 | 56 | 1012.6 |
| 20260904220523 | 21 | 313 | 3.2 | 9.7 | 0.00 | 0.36 | 0.03 | 56 | 1012.6 |
| 20260904220002 | 21 | 299 | 4.8 | 12.9 | 0.00 | 0.36 | 0.03 | 56 | 1012.6 |
| 20260904215502 | 21 | 323 | 4.8 | 16.1 | 0.00 | 0.36 | 0.03 | 57 | 1012.6 |
| 20260904215002 | 21 | 340 | 4.8 | 16.1 | 0.00 | 0.36 | 0.03 | 56 | 1012.6 |
| 20260904214502 | 21 | 323 | 3.2 | 16.1 | 0.00 | 0.36 | 0.03 | 56 | 1012.6 |
| 20260904214002 | 21 | 271 | 4.8 | 14.5 | 0.00 | 0.36 | 0.03 | 55 | 1012.6 |
| 20260904213502 | 21 | 250 | 4.8 | 14.5 | 0.00 | 0.36 | 0.03 | 53 | 1012.6 |
| 20260904213002 | 21 | 248 | 4.8 | 12.9 | 0.00 | 0.36 | 0.03 | 54 | 1012.6 |
| 20260904212502 | 21 | 241 | 3.2 | 12.9 | 0.00 | 0.36 | 0.03 | 54 | 1012.6 |
| 20260904212002 | 21 | 252 | 4.8 | 12.9 | 0.00 | 0.36 | 0.03 | 55 | 1012.6 |
| 20260904211502 | 20 | 255 | 4.8 | 12.9 | 0.00 | 0.36 | 0.03 | 52 | 1012.6 |
| 20260904211002 | 20 | 282 | 4.8 | 12.9 | 0.00 | 0.36 | 0.03 | 51 | 1012.6 |
| 20260904210502 | 20 | 320 | 4.8 | 12.9 | 0.00 | 0.36 | 0.03 | 54 | 1012.6 |
| 20260904210002 | 20 | 294 | 4.8 | 11.3 | 0.00 | 0.36 | 0.03 | 57 | 1012.6 |
| 20260904205523 | 20 | 267 | 4.8 | 16.1 | 0.00 | 0.36 | 0.03 | 56 | 1012.6 |
| 20260904205002 | 20 | 229 | 4.8 | 16.1 | 0.00 | 0.36 | 0.03 | 57 | 1012.6 |
| 20260904204502 | 20 | 230 | 6.4 | 12.9 | 0.00 | 0.36 | 0.03 | 56 | 1012.6 |
| 20260904204002 | 20 | 237 | 4.8 | 12.9 | 0.00 | 0.36 | 0.03 | 58 | 1012.6 |
| 20260904203502 | 20 | 261 | 4.8 | 11.3 | 0.00 | 0.36 | 0.03 | 58 | 1012.6 |
| 20260904203002 | 20 | 305 | 4.8 | 11.3 | 0.00 | 0.36 | 0.03 | 58 | 1012.6 |
| 20260904202502 | 20 | 277 | 4.8 | 11.3 | 0.00 | 0.36 | 0.03 | 57 | 1012.6 |
| 20260904202002 | 20 | 238 | 4.8 | 11.3 | 0.00 | 0.36 | 0.03 | 59 | 1012.6 |
| 20260904201502 | 20 | 252 | 3.2 | 11.3 | 0.00 | 0.36 | 0.03 | 60 | 1012.6 |
| 20260904201023 | 20 | 249 | 4.8 | 14.5 | 0.00 | 0.36 | 0.03 | 58 | 1012.6 |
| 20260904200523 | 20 | 263 | 4.8 | 14.5 | 0.00 | 0.36 | 0.03 | 59 | 1012.6 |
| 20260904200002 | 20 | 294 | 3.2 | 8.0 | 0.00 | 0.36 | 0.03 | 58 | 1012.6 |
| 20260904195502 | 20 | 314 | 3.2 | 8.0 | 0.00 | 0.36 | 0.03 | 59 | 1012.6 |
| 20260904195023 | 20 | 327 | 3.2 | 8.0 | 0.00 | 0.36 | 0.03 | 61 | 1012.6 |
| 20260904194502 | 20 | 323 | 3.2 | 8.0 | 0.00 | 0.36 | 0.03 | 61 | 1012.6 |
| 20260904194002 | 19 | 302 | 1.6 | 8.0 | 0.00 | 0.36 | 0.03 | 61 | 1012.6 |
| 20260904193502 | 19 | 286 | 1.6 | 9.7 | 0.00 | 0.36 | 0.03 | 64 | 1012.6 |
| 20260904193002 | 18 | 252 | 3.2 | 9.7 | 0.00 | 0.36 | 0.03 | 65 | 1012.6 |
| 20260904192502 | 18 | 228 | 3.2 | 12.9 | 0.00 | 0.36 | 0.03 | 65 | 1012.6 |
| 20260904192002 | 18 | 234 | 3.2 | 12.9 | 0.00 | 0.36 | 0.03 | 65 | 1012.6 |
| 20260904191502 | 18 | 230 | 4.8 | 11.3 | 0.00 | 0.36 | 0.03 | 65 | 1012.6 |
| 20260904191002 | 18 | 233 | 4.8 | 11.3 | 0.00 | 0.36 | 0.03 | 64 | 1012.6 |
| 20260904190502 | 18 | 247 | 3.2 | 11.3 | 0.00 | 0.36 | 0.03 | 65 | 1012.6 |
| 20260904190002 | 18 | 248 | 4.8 | 12.9 | 0.00 | 0.36 | 0.03 | 66 | 1012.6 |
| 20260904185523 | 18 | 259 | 3.2 | 12.9 | 0.00 | 0.36 | 0.03 | 66 | 1012.6 |
| 20260904185002 | 18 | 306 | 1.6 | 11.3 | 0.00 | 0.36 | 0.03 | 67 | 1012.6 |
| 20260904184502 | 18 | 260 | 3.2 | 9.7 | 0.00 | 0.36 | 0.03 | 70 | 1012.6 |
| 20260904184002 | 18 | 237 | 3.2 | 9.7 | 0.00 | 0.36 | 0.03 | 71 | 1012.6 |
| 20260904183502 | 17 | 227 | 3.2 | 11.3 | 0.00 | 0.36 | 0.03 | 73 | 1012.6 |
| 20260904183002 | 17 | 232 | 4.8 | 11.3 | 0.00 | 0.36 | 0.03 | 73 | 1012.6 |
| 20260904182502 | 17 | 247 | 3.2 | 11.3 | 0.00 | 0.36 | 0.03 | 73 | 1012.6 |
| 20260904182002 | 17 | 273 | 1.6 | 8.0 | 0.00 | 0.36 | 0.03 | 76 | 1012.6 |
| 20260904181502 | 16 | 244 | 3.2 | 9.7 | 0.00 | 0.36 | 0.03 | 79 | 1012.6 |
| 20260904181002 | 16 | 228 | 3.2 | 9.7 | 0.00 | 0.36 | 0.03 | 82 | 1012.6 |
| 20260904180502 | 16 | 230 | 3.2 | 8.0 | 0.00 | 0.36 | 0.03 | 85 | 1012.6 |
| 20260904180002 | 16 | 233 | 1.6 | 6.4 | 0.00 | 0.36 | 0.03 | 88 | 1012.6 |
| 20260904175502 | 15 | 232 | 1.6 | 6.4 | 0.00 | 0.36 | 0.03 | 89 | 1012.6 |
| 20260904175002 | 15 | 233 | 3.2 | 8.0 | 0.00 | 0.36 | 0.03 | 90 | 1012.6 |
| 20260904174502 | 15 | 233 | 3.2 | 9.7 | 0.00 | 0.36 | 0.03 | 91 | 1012.6 |
| 20260904174002 | 15 | 227 | 1.6 | 9.7 | 0.00 | 0.36 | 0.03 | 93 | 1012.6 |
| 20260904173502 | 15 | 225 | 1.6 | 6.4 | 0.00 | 0.36 | 0.03 | 94 | 1012.6 |
| 20260904173002 | 15 | 231 | 1.6 | 4.8 | 0.00 | 0.36 | 0.03 | 94 | 1012.6 |
| 20260904172502 | 14 | 234 | 1.6 | 4.8 | 0.00 | 0.36 | 0.03 | 95 | 1012.6 |
| 20260904172002 | 14 | 238 | 1.6 | 6.4 | 0.00 | 0.36 | 0.03 | 95 | 1012.6 |
| 20260904171502 | 14 | 239 | 1.6 | 6.4 | 0.00 | 0.36 | 0.03 | 95 | 1012.6 |
| 20260904171023 | 14 | 239 | 1.6 | 6.4 | 0.00 | 0.36 | 0.03 | 95 | 1012.6 |
| 20260904170502 | 14 | 239 | 1.6 | 6.4 | 0.00 | 0.36 | 0.03 | 95 | 1012.6 |
| 20260904170002 | 14 | 236 | 1.6 | 6.4 | 0.00 | 0.36 | 0.03 | 95 | 1012.6 |
| 20260904165502 | 14 | 234 | 1.6 | 6.4 | 0.00 | 0.36 | 0.03 | 95 | 1012.6 |